Howell, MI

7:06 AM EST on February 25, 2017 (GMT -0500)
Livingston County

Weather History for KOZW - March, 2013

Change the Weather History Date:

Saturday, March 23, 2013

  Actual Average Record
Temperature  
Mean Temperature 27 °F -  
Max Temperature 33 °F 45 °F 69 °F (2012)
Min Temperature 21 °F 29 °F 12 °F (2014)
Degree Days  
Heating Degree Days 38    
Moisture  
Dew Point 21 °F    
Average Humidity 71    
Maximum Humidity 89    
Minimum Humidity 60    
Precipitation  
Precipitation 0.00 in - - ()
Sea Level Pressure  
Sea Level Pressure 30.04 in    
Wind  
Wind Speed 4 mph (NW)    
Max Wind Speed 8 mph    
Max Gust Speed -    
Visibility 10 miles    
Events      
Averages and records for this station are not official NWS values.
T = Trace of Precipitation, MM = Missing Value Source: NWS Daily Summary

Daily Weather History Graph

Daily Weather History Graph

Search for Another Location

Airport or City:

Trip Planner

Search our weather history database for the weather conditions in past years. The results will help you decide how hot, cold, wet, or windy it might be!

Date:

Astronomy

Mar. 23, 2013 Rise Set
Actual Time 7:33 AM EDT 7:51 PM EDT
Civil Twilight 7:05 AM EDT 8:20 PM EDT
Nautical Twilight 6:32 AM EDT 8:53 PM EDT
Astronomical Twilight 5:58 AM EDT 9:27 PM EDT
Moon 4:13 PM EDT (3/23) 5:13 AM EDT (3/23)
Length of Visible Light 13h 14m
Length of Day
12h 18m
Waxing Gibbous, 85% of the Moon is Illuminated
Mar 23
Waxing Gibbous
Mar 27
Full
Apr 3
Last Quarter
Apr 10
New
Apr 18
First Quarter

Hourly Weather History & Observations

Time (EDT) Temp. Windchill Dew Point Humidity Pressure Visibility Wind Dir Wind Speed Gust Speed Precip Events Conditions
12:15 AM 28.0 °F 20.8 °F 19.9 °F 72% 30.00 in 10.0 mi West 6.9 mph - N/A   Clear
12:34 AM 27.5 °F 21.1 °F 20.1 °F 74% 30.00 in 10.0 mi West 5.8 mph - N/A   Clear
12:54 AM 27.1 °F 20.7 °F 19.9 °F 74% 30.01 in 10.0 mi West 5.8 mph - N/A   Clear
1:15 AM 26.8 °F 20.2 °F 19.9 °F 75% 30.01 in 10.0 mi West 5.8 mph - N/A   Clear
1:34 AM 26.6 °F 20.0 °F 19.9 °F 76% 30.00 in 10.0 mi West 5.8 mph - N/A   Clear
1:54 AM 25.9 °F 19.2 °F 19.8 °F 78% 30.00 in 10.0 mi West 5.8 mph - N/A   Clear
2:15 AM 24.6 °F 18.8 °F 18.9 °F 79% 30.00 in 10.0 mi WNW 4.6 mph - N/A   Clear
2:34 AM 25.5 °F 19.9 °F 20.1 °F 80% 30.01 in 10.0 mi West 4.6 mph - N/A   Clear
2:54 AM 25.5 °F 19.9 °F 20.3 °F 81% 30.01 in 10.0 mi West 4.6 mph - N/A   Scattered Clouds
3:14 AM 25.3 °F 21.1 °F 20.3 °F 81% 30.01 in 10.0 mi WNW 3.5 mph - N/A   Scattered Clouds
3:34 AM 23.9 °F 19.5 °F 18.9 °F 81% 30.00 in 10.0 mi NW 3.5 mph - N/A   Scattered Clouds
3:55 AM 24.1 °F - 19.9 °F 84% 30.00 in 10.0 mi Calm Calm - N/A   Clear
4:14 AM 24.4 °F - 19.8 °F 82% 30.00 in 10.0 mi Calm Calm - N/A   Clear
4:34 AM 23.7 °F - 19.6 °F 84% 30.00 in 10.0 mi Calm Calm - N/A   Clear
4:55 AM 23.7 °F 19.3 °F 19.6 °F 84% 30.00 in 10.0 mi West 3.5 mph - N/A   Clear
5:14 AM 22.1 °F 17.4 °F 18.5 °F 86% 30.00 in 7.0 mi WSW 3.5 mph - N/A   Clear
5:35 AM 21.7 °F 14.3 °F 18.9 °F 89% 30.00 in 7.0 mi West 5.8 mph - N/A   Scattered Clouds
5:54 AM 22.6 °F 15.3 °F 19.6 °F 88% 30.01 in 7.0 mi West 5.8 mph - N/A   Overcast
6:14 AM 24.1 °F 19.7 °F 21.2 °F 89% 30.01 in 7.0 mi West 3.5 mph - N/A   Overcast
6:35 AM 25.7 °F 21.5 °F 22.6 °F 88% 30.02 in 10.0 mi WNW 3.5 mph - N/A   Overcast
7:14 AM 27.5 °F 23.6 °F 23.9 °F 86% 30.02 in 10.0 mi NW 3.5 mph - N/A   Overcast
7:35 AM 28.0 °F 24.2 °F 23.9 °F 84% 30.03 in 10.0 mi NNW 3.5 mph - N/A   Overcast
7:54 AM 28.0 °F 22.8 °F 23.7 °F 84% 30.03 in 10.0 mi NNW 4.6 mph - N/A   Overcast
8:14 AM 28.2 °F 24.4 °F 23.4 °F 82% 30.03 in 10.0 mi North 3.5 mph - N/A   Overcast
8:35 AM 28.8 °F 25.0 °F 22.6 °F 78% 30.04 in 10.0 mi NNW 3.5 mph - N/A   Overcast
9:14 AM 29.3 °F 25.6 °F 20.7 °F 70% 30.05 in 10.0 mi NNW 3.5 mph - N/A   Overcast
9:35 AM 29.3 °F 25.6 °F 21.0 °F 71% 30.05 in 10.0 mi North 3.5 mph - N/A   Overcast
9:54 AM 29.1 °F 24.1 °F 20.7 °F 71% 30.06 in 10.0 mi North 4.6 mph - N/A   Overcast
10:15 AM 29.3 °F 24.3 °F 21.0 °F 71% 30.06 in 10.0 mi NNW 4.6 mph - N/A   Overcast
10:34 AM 29.7 °F - 21.0 °F 70% 30.07 in 10.0 mi Calm Calm - N/A   Overcast
10:54 AM 29.8 °F 26.3 °F 21.2 °F 70% 30.07 in 10.0 mi NNE 3.5 mph - N/A   Overcast
11:15 AM 29.8 °F - 20.3 °F 68% 30.08 in 10.0 mi Calm Calm - N/A   Overcast
11:34 AM 30.6 °F 27.1 °F 20.3 °F 66% 30.08 in 10.0 mi NW 3.5 mph - N/A   Overcast
11:54 AM 30.6 °F 27.1 °F 19.6 °F 64% 30.08 in 10.0 mi South 3.5 mph - N/A   Overcast
12:15 PM 31.8 °F 28.5 °F 20.3 °F 62% 30.08 in 10.0 mi North 3.5 mph - N/A   Overcast
12:34 PM 32.0 °F - 20.5 °F 63% 30.09 in 10.0 mi Calm Calm - N/A   Overcast
12:54 PM 32.0 °F 27.5 °F 20.5 °F 63% 30.09 in 10.0 mi West 4.6 mph - N/A   Overcast
1:15 PM 32.0 °F 26.4 °F 21.0 °F 64% 30.09 in 10.0 mi West 5.8 mph - N/A   Overcast
1:34 PM 32.2 °F 26.7 °F 21.7 °F 65% 30.09 in 10.0 mi WNW 5.8 mph - N/A   Overcast
1:54 PM 32.5 °F 28.1 °F 22.3 °F 66% 30.08 in 10.0 mi West 4.6 mph - N/A   Overcast
2:15 PM 32.9 °F 26.7 °F 22.3 °F 65% 30.08 in 10.0 mi WNW 6.9 mph - N/A   Overcast
2:34 PM 33.3 °F 27.9 °F 22.1 °F 64% 30.07 in 10.0 mi NW 5.8 mph - N/A   Overcast
2:54 PM 32.9 °F - 21.7 °F 64% 30.06 in 10.0 mi Calm Calm - N/A   Overcast
3:15 PM 33.3 °F 26.4 °F 21.9 °F 63% 30.07 in 10.0 mi NW 8.1 mph - N/A   Overcast
3:34 PM 33.1 °F 26.9 °F 21.9 °F 64% 30.07 in 10.0 mi WNW 6.9 mph - N/A   Overcast
3:55 PM 33.3 °F 27.1 °F 22.8 °F 66% 30.06 in 10.0 mi WNW 6.9 mph - N/A   Overcast
4:14 PM 33.6 °F 28.4 °F 22.3 °F 63% 30.06 in 10.0 mi NNW 5.8 mph - N/A   Overcast
4:34 PM 33.3 °F 28.9 °F 21.6 °F 62% 30.05 in 10.0 mi NNE 4.6 mph - N/A   Overcast
4:55 PM 33.4 °F 30.4 °F 20.8 °F 60% 30.07 in 10.0 mi West 3.5 mph - N/A   Overcast
5:14 PM 33.3 °F 27.9 °F 21.0 °F 61% 30.06 in 10.0 mi North 5.8 mph - N/A   Overcast
5:34 PM 33.4 °F 30.4 °F 21.4 °F 61% 30.07 in 10.0 mi WNW 3.5 mph - N/A   Overcast
5:54 PM 33.6 °F - 21.2 °F 60% 30.05 in 10.0 mi Calm Calm - N/A   Overcast
6:14 PM 33.8 °F 29.6 °F 21.4 °F 60% 30.06 in 10.0 mi NNW 4.6 mph - N/A   Overcast
6:35 PM 33.3 °F - 21.0 °F 61% 30.06 in 10.0 mi Calm Calm - N/A   Overcast
6:54 PM 32.9 °F 29.8 °F 21.2 °F 62% 30.05 in 10.0 mi North 3.5 mph - N/A   Overcast
7:14 PM 32.9 °F 29.8 °F 21.0 °F 62% 30.05 in 10.0 mi NW 3.5 mph - N/A   Overcast
7:35 PM 32.4 °F 29.1 °F 20.5 °F 62% 30.06 in 10.0 mi NNE 3.5 mph - N/A   Overcast
7:54 PM 32.0 °F 28.7 °F 20.3 °F 62% 30.06 in 10.0 mi NE 3.5 mph - N/A   Overcast
8:14 PM 32.0 °F - 19.9 °F 61% 30.05 in 10.0 mi Calm Calm - N/A   Overcast
8:34 PM 32.0 °F - 20.5 °F 63% 30.05 in 10.0 mi Calm Calm - N/A   Overcast
8:54 PM 32.0 °F 27.5 °F 20.7 °F 63% 30.06 in 10.0 mi North 4.6 mph - N/A   Overcast
9:15 PM 31.6 °F - 20.1 °F 62% 30.06 in 10.0 mi Calm Calm - N/A   Scattered Clouds
9:34 PM 31.1 °F - 20.1 °F 64% 30.07 in 10.0 mi Calm Calm - N/A   Clear
9:54 PM 30.6 °F 27.1 °F 19.9 °F 65% 30.05 in 10.0 mi NNE 3.5 mph - N/A   Clear
10:15 PM 30.2 °F - 20.3 °F 67% 30.05 in 10.0 mi Calm Calm - N/A   Clear
10:34 PM 30.2 °F - 20.3 °F 67% 30.05 in 10.0 mi Calm Calm - N/A   Clear
10:54 PM 28.9 °F - 19.8 °F 69% 30.05 in 10.0 mi Calm Calm - N/A   Clear
11:15 PM 28.4 °F - 20.5 °F 72% 30.05 in 10.0 mi Calm Calm - N/A   Clear
11:34 PM 28.4 °F - 20.8 °F 73% 30.05 in 10.0 mi Calm Calm - N/A   Clear
11:54 PM 26.4 °F - 20.5 °F 78% 30.03 in 10.0 mi Calm Calm - N/A   Clear